Location: Central Falls
(41.8900°N, 71.3929°W)
Time: 07:38:26
(UTC+00:00)

Altair - Pass Details

Date: 11 December 2023
Orbit: 1501 x 1682 km, 47.2° (Epoch: 29 February)

Event Time Altitude Azimuth Distance (km) Brightness Sun altitude
Rises 14:37:51 0° 281° (W) 4,812 9.7 19.3°
Reaches altitude 10° 14:41:03 10° 284° (WNW) 3,801 9.2 19.6°
Maximum altitude 14:50:37 65° 6° (N) 1,677 7.8 20.4°
Drops below altitude 10° 14:59:50 10° 88° (E) 3,674 9.9 21.2°
Sets 15:02:53 0° 92° (E) 4,644 10.4 21.4°
